Location: Lafig�re
(44.4503°N, 4.0357°E)
Time: 15:40:19
(UTC+00:00)

Transit 2A Rocket - Pass Details

Date: 25 January 2021
Orbit: 594 x 908 km, 66.7° (Epoch: 06 March)

Event Time Altitude Azimuth Distance (km) Brightness Sun altitude
Rises 11:54:02 0° 216° (SW) 3,349 9.1 26.7°
Reaches altitude 10° 11:56:34 10° 219° (SW) 2,373 8.5 26.7°
Maximum altitude 12:02:00 71° 303° (WNW) 793 5.4 26.7°
Drops below altitude 10° 12:06:57 10° 28° (NNE) 2,175 6.9 26.7°
Sets 12:09:12 0° 31° (NNE) 3,049 7.6 26.6°
